www.pogodaiklimat.ru

Погода и климат >> Архив погоды >> Украина >> Барышевка


ПОГОДА в Барышевке

  • Прогноз погоды в Барышевке
  • Монитор погоды в Барышевке

АРХИВ ПОГОДЫ в Барышевке

Время (UTC), дата Ветер
(напр.,м/с)
 
Видим.   Явления Облачность Т
(С)
Тd
(С)
f
(%)
Тe
(С)
Тes
(С)
Комфортность P
(гПа)
Po
(гПа)
Тmin
(С)
Tmax
(С)
R
(мм)
R24
(мм)
S
(см)
12 14.08 ЮЗ 4 10 км 6/4 1000 м
[Cu hum Ci fib]
+32.2 +15.1 36 +34 +39 душно 1009.9 996.4
15 14.08 СЗ 3 10 км 8/0
[Ci fib]
+31.6 +14.1 35 +33 +35 жарко 1008.3 994.8
18 14.08 Ю 1 10 км ясно +25.0 +14.9 53 +28 +28 жарко 1008.0 994.2 +33.0
21 14.08 Ю 2 10 км ясно +20.9 +14.4 66 +24 +24 комфорт 1008.6 994.6
00 15.08 Ю 2 10 км ясно +18.7 +14.8 78 +20 +20 1008.9 994.8
03 15.08 С 3 4000 м дымка 10/10 600 м
[Cb cap]
+18.0 +16.8 93 +18 +18 1009.5 995.4
06 15.08 С 3 10 км 10/10 600 м
[Sc]
+19.0 +17.2 89 +21 +21 комфорт 1010.4 996.3 +14.4
09 15.08 С 4 10 км 10/10 600 м
[Sc]
+18.2 +15.1 82 +18 +18 1010.8 996.7
12 15.08 С 4 10 км 10/10 600 м
[Sc]
+19.3 +14.9 76 +21 +21 комфорт 1011.1 997.0
15 15.08 С 5 10 км 8/3 600 м
[Cu Sc Ac trans Ci fib]
+20.8 +14.1 65 +23 +24 комфорт 1010.4 996.4
18 15.08 С 4 10 км 10/10 600 м
[Sc]
+18.4 +13.7 74 +19 +19 1011.2 997.1 +21.2
21 15.08 С 3 10 км 10/10 600 м
[Sc]
+17.8 +14.0 78 +18 +18 1011.0 996.8
00 16.08 С 3 10 км 10/10 600 м
[Sc]
+17.0 +14.8 87 +17 +17 1010.8 996.6
03 16.08 СЗ 3 10 км {ливн. осадки} 10/10 600 м
[Sc]
+16.3 +13.6 84 +16 +16 1010.6 996.4
06 16.08 С 4 10 км {ливн. осадки} 10/0
[As op]
+15.7 +13.9 89 +15 +15 1010.8 996.6 +15.6 0.3
09 16.08 С 2 10 км 10/0
[As op]
+16.9 +13.4 80 +17 +20 1011.0 996.8
12 16.08 С 4 10 км 10/0
[As op]
+17.2 +13.7 80 +17 +18 1011.2 997.0
18 16.08 С 4 10 км 10/10 600 м
[Sc]
+16.6 +11.8 73 +16 +16 1012.2 998.0 +17.8
00 17.08 С 4 10 км 10/10 600 м
[Sc]
+14.8 +12.0 83 +14 +14 1012.0 997.7
06 17.08 С 3 10 км 10/10 600 м
[Sc]
+15.0 +11.3 79 +14 +14 1011.7 997.4 +13.9
12 17.08 СЗ 4 10 км 10/10 600 м
[Cb cap]
+16.4 +12.0 75 +16 +16 1012.0 997.8
18 17.08 СЗ 4 10 км 10/10 600 м
[Sc]
+14.9 +10.8 76 +14 +14 1012.6 998.3 +17.0
00 18.08 СЗ 1 10 км 6/0
[Ac und Cc]
+15.0 +13.0 88 +15 +15 1012.6 998.3
03 18.08 З 1 4000 м дымка 3/0
[Ac und]
+13.2 +12.3 94 +13 +13 1013.0 998.6
06 18.08 З 2 10 км 1/0
[Ac und]
+16.8 +12.1 74 +17 +22 1013.3 999.1 +13.0
12 18.08 З 4 10 км 8/4 1000 м
[Cu hum Ci sp]
+24.0 +7.5 35 +24 +28 комфорт 1013.5 999.6
18 18.08 штиль 0 10 км ясно +16.6 +13.4 81 +16 +16 1015.3 1001.0 +25.0
00 19.08 штиль 0 4000 м местами туман поземный ясно +8.6 +8.2 97 +8 +8 1017.5 1002.8
06 19.08 В 1 10 км ясно +19.9 +11.1 57 +22 +28 комфорт 1019.0 1004.8 +6.9
12 19.08 СВ 2 10 км ясно +28.4 +9.6 31 +28 +39 жарко 1018.0 1004.2
18 19.08 ЮВ 1 10 км ясно +21.4 +14.6 65 +24 +24 комфорт 1019.7 1005.6 +29.5
00 20.08 штиль 0 4000 м дымка ясно +13.0 +11.5 91 +12 +12 1020.9 1006.4
06 20.08 штиль 0 10 км ясно +21.0 +11.6 55 +23 +30 комфорт 1022.4 1008.2 +10.1
12 20.08 СВ 1 10 км ясно +30.8 +7.2 23 +30 +42 жарко 1021.1 1007.4
18 20.08 штиль 0 10 км ясно +21.8 +13.1 58 +24 +24 комфорт 1022.3 1008.2 +30.8
06 21.08 штиль 0 10 км ясно +23.0 +14.3 58 +27 +33 душно 1023.1 1009.0 +11.8

 

Местоположение метеостанции Барышевка (Киевская область, Украина): широта 50.37 долгота 31.33 высота над уровнем моря 120 м.

В архиве по умолчанию представлена погода в Барышевке за последнюю неделю. Архивные данные за месяц целиком и за предыдущие месяцы, начиная с января 2011 года, Вы можете получить, выбрав интересующий диапазон дат из раскрывающегося списка и нажав кнопку "Ввод!".


*Определитесь, кто Вы:
робот инопланетянин человек

Внимание! Время в таблицах - всемирное. Для получения местного времени необходимо прибавить поправку, которая равна 2 ч.

Смотрите также архив погоды в соседних городах и на ближайших метеорологических станциях:

Погода в Борисполе (Киевская область, Украина) (26 км)
Погода в Яготине (Киевская область, Украина) (37 км)
Погода в Киеве (город Киев, Украина) (54 км)
Погода в Вышгороде (Киевская область, Украина) (65 км)
Погода в Остере (Черниговская область, Украина) (72 км)
Погода в Каневе (Черкасская область, Украина) (72 км)
Погода в Прилуках (Черниговская область, Украина) (78 км)
Погода в Мироновке (Киевская область, Украина) (81 км)
Погода в Нежине (Черниговская область, Украина) (86 км)
Погода в Золотоноше (Черкасская область, Украина) (92 км)

Пояснения к столбцам:

Ветер - указаны скорость ветра в м/с - средняя за 10 мин, порывы в срок и между сроками (в фигурных скобках) и направление, откуда дует ветер: С - северный, СВ - северо-восточный, В - восточный, ЮВ - юго-восточный, Ю - южный, ЮЗ - юго-западный, З - западный, СЗ - северо-западный.
Видимость - горизонтальная дальность видимости в метрах или километрах. При видимости от 1 до 10 км при отсутствии осадков обычно наблюдается дымка, при ухудшении видимости до 1 км и менее - туман. В сухую погоду видимость может ухудшаться дымом, пылью или мглою.
Явления - указаны атмосферные явления, наблюдавшиеся в срок или в последний час перед сроком; фигурными скобками обозначены явления, наблюдавшиеся между сроками (за 1-3 часа до срока); квадратными скобками обозначены град или гололедные отложения с указанием их диаметра в мм.
Облачность - указаны через наклонную черту общая и нижняя облачность в баллах и высота нижней границы облаков в метрах; квадратными скобками обозначены формы облаков: Ci - перистые, Cs - перисто-слоистые, Cc - перисто-кучевые, Ac - высококучевые, As - высокослоистые, Sc - слоисто-кучевые, Ns - слоисто-дождевые, Cu - кучевые, Cb - кучево-дождевые. Подробнее классификацию облаков см. в Атласе облаков (PDF).
T - Температура воздуха - температура, измеренная на высоте 2 м над землей.
Td - Температура точки росы - температура, при понижении до которой содержащийся в воздухе водяной пар достигнет насыщения.
f - Относительная влажность воздуха - влажноcть воздуха, измеренная на высоте 2 м над землей.
Te - Эффективная температура - температура, которую ощущает одетый по сезону человек в тени. Характеристика душности погоды. При расчете учитывается влияние влажности воздуха и скорости ветра на теплоощущения человека.
Tes - Эффективная температура на солнце - температура, которую ощущает человек, с поправкой на солнечный нагрев. Характеристика знойности погоды. Зависит от высоты солнца над горизонтом, облачности и скорости ветра. Ночью, в пасмурную погоду, а также при ветре 12 м/с и более поправка равна нулю.
P - Атмосферное давление - приведенное к уровню моря атмосферное давление.
Po - Атмосферное давление - измеренное на уровне метеостанции атмосферное давление.
Tmin - Минимальная температура - минимум температуры воздуха на высоте 2 м над землей.
Tmax - Максимальная температура - максимум температуры воздуха на высоте 2 м над землей.
R - Количество осадков - Количество выпавших осадков за период времени, мм. При наведении курсора мыши на число - период времени, за который выпало указанное количество осадков.
R24 - Количество осадков - Количество выпавших осадков за 24 часа, мм.
S - Снежный покров - Высота снежного покрова, см. При наведении курсора мыши на число - состояние снежного покрова и степень покрытия местности в баллах.